Terug naar catalogus

STARLINK-35173

ActiefCommunicatieVLEO
NORAD 65744·PAYLOAD·🇺🇸 United States

Gelanceerd Sep 25, 2025 vanaf Cape Canaveral Space Force Station

Loading…

Volgende Passages (komende 24 uur)

TLE

VersSource: CelesTrak SupGP

Epoch: Sep 15, 2026, 02:59 UTC

1 65744C 25216L   26258.12479167 -.00034906  00000+0 -10314-2 0  2584
2 65744  53.1577 170.6169 0001340  86.8090 155.7795 15.34404559    15

Volg STARLINK-35173 in realtime met AllMySat

Download on the App Store